This is the latest recevied weather packets stored in our database for station/object EA1FBN. If no packets are shown the sender has not sent any weather packets the latest 10 day(s).
| Time | Temp. | Humidity | Pressure | Rain* | Wind** | Luminosity | Snow |
|---|---|---|---|---|---|---|---|
| 1787476543 | 24.44° C | 40% | 1014.4 hPa | 0 mm | - | - | - |
| 1787476243 | 24.44° C | 44% | 1014.3 hPa | 0 mm | - | - | - |
| 1787475643 | 23.89° C | 47% | 1014.3 hPa | 0 mm | - | - | - |
| 1787475343 | 23.33° C | 47% | 1014.4 hPa | 0 mm | - | - | - |
| 1787474743 | 22.78° C | 47% | 1014.5 hPa | 0 mm | - | - | - |
| 1787474443 | 22.78° C | 47% | 1014.4 hPa | 0 mm | - | - | - |
| 1787473843 | 21.67° C | 48% | 1014.4 hPa | 0.25 mm | - | - | - |
| 1787473543 | 21.67° C | 51% | 1014.5 hPa | 0.25 mm | - | - | - |
| 1787472943 | 20.56° C | 55% | 1014.4 hPa | 0.25 mm | - | - | - |
| 1787472643 | 20.56° C | 57% | 1014.5 hPa | 0.25 mm | - | - | - |
| 1787472043 | 20° C | 59% | 1014.4 hPa | 0.25 mm | - | - | - |
| 1787471743 | 19.44° C | 59% | 1014.4 hPa | 0.25 mm | - | - | - |
| 1787471143 | 18.89° C | 67% | 1014.4 hPa | 0.25 mm | - | - | - |
| 1787470843 | 18.33° C | 66% | 1014.4 hPa | 0.25 mm | - | - | - |
| 1787470243 | 18.33° C | 68% | 1014.4 hPa | 0 mm | - | - | - |
| 1787469943 | 17.78° C | 70% | 1014.4 hPa | 0 mm | - | - | - |
| 1787469343 | 17.22° C | 72% | 1014.4 hPa | 0 mm | - | - | - |
| 1787469043 | 17.22° C | 71% | 1014.5 hPa | 0 mm | - | - | - |
| 1787468443 | 16.67° C | 72% | 1014.4 hPa | 0 mm | - | - | - |
| 1787468143 | 16.67° C | 73% | 1014.5 hPa | 0 mm | - | - | - |
| 1787467543 | 16.11° C | 77% | 1014.4 hPa | 0 mm | - | - | - |
| 1787467243 | 15.56° C | 78% | 1014.4 hPa | 0 mm | - | - | - |
| 1787466643 | 15° C | 79% | 1014.5 hPa | 0 mm | - | - | - |
| 1787466343 | 15° C | 79% | 1014.4 hPa | 0 mm | - | - | - |
| 1787465743 | 14.44° C | 78% | 1014.4 hPa | 0 mm | - | - | - |
* Rain latest hour (hover to see other rain measurements)
** Current wind speed in m/s (hover to see current wind gust speed)